Theta_e
327 328 328 327 327 327 326 327 326 326 326 325 325 325 326 325 323 321 321 321 320 319 318 318 317 316 317 317 316 315 312 310 308 307 305 305 305 305 305 305 305 304 304 305 304 304 305 307 308 306 301 301 302 300 300 300 300 302 301 302 303 302 302 304 303 301 300 300 299 299 298 299 300 300 299 299 300 299 298 298 300 301 302 303 303
328 329 330 329 328 327 327 327 327 326 326 326 325 325 326 325 323 321 321 321 320 319 317 317 317 316 316 316 314 313 311 309 307 305 304 304 304 304 304 303 303 303 302 302 301 300 301 301 303 305 303 298 297 298 298 299 301 303 302 303 303 301 300 300 299 298 297 297 296 296 296 296 296 297 296 297 298 297 297 296 298 300 301 302 301
328 329 330 330 329 328 327 327 327 327 326 326 325 325 326 325 324 321 321 321 320 319 317 317 318 317 316 314 313 313 312 309 306 305 304 304 304 304 303 303 302 302 302 301 301 300 299 298 298 303 303 298 299 302 301 302 304 303 302 301 301 300 298 298 296 296 295 294 294 294 294 294 294 294 294 294 294 294 294 294 296 297 297 298 297
328 330 331 331 330 328 328 327 326 326 326 326 325 325 325 324 324 322 322 321 321 320 318 317 318 317 316 314 313 315 313 308 305 304 304 304 303 303 303 302 302 301 301 300 300 298 298 297 295 297 298 297 301 303 301 302 302 301 300 298 298 297 296 296 295 294 294 293 293 293 293 293 293 292 293 293 293 292 292 293 293 293 293 293 293
328 330 331 330 330 328 328 327 325 326 326 326 326 326 325 324 324 324 323 322 321 320 318 318 318 316 316 314 312 310 308 306 304 304 304 303 303 302 302 302 302 301 301 299 298 297 296 296 295 295 295 295 298 298 297 298 298 297 297 295 295 295 294 294 293 293 293 292 292 292 291 292 291 293 294 293 292 292 292 293 292 293 294 293 292
328 330 330 330 330 328 328 327 326 328 327 326 326 326 326 325 325 324 323 322 321 319 318 317 316 315 315 314 310 306 305 305 304 303 303 303 302 302 302 302 302 301 299 298 297 296 295 295 295 294 294 294 294 294 294 294 294 294 294 293 294 295 294 293 292 292 292 291 291 291 291 291 290 293 295 293 293 294 294 294 293 294 296 294 292
328 330 330 330 330 328 329 328 327 329 328 327 326 326 326 325 325 325 323 322 321 319 318 317 315 314 314 312 309 306 306 305 303 303 303 303 303 302 302 302 301 300 298 297 296 295 295 295 295 294 294 294 293 293 293 292 292 292 293 294 296 296 294 291 291 291 291 290 290 290 290 290 290 291 292 291 293 294 293 292 292 292 295 293 292
327 329 329 330 330 329 329 328 327 327 326 326 326 327 326 325 324 324 323 322 321 319 318 316 314 314 313 310 308 307 306 305 303 304 303 303 303 302 302 301 300 298 297 296 296 295 295 295 294 294 294 293 293 293 292 292 292 291 292 294 295 293 291 290 291 290 290 290 290 290 290 290 290 290 290 290 291 291 290 290 290 290 291 291 291
327 328 328 329 328 328 329 327 326 324 324 325 326 327 325 324 324 322 322 321 320 319 318 315 314 313 310 307 306 306 305 304 304 303 303 303 303 301 301 300 298 297 296 295 295 295 294 294 294 293 293 293 292 292 291 291 291 291 291 291 291 291 290 290 290 290 290 290 289 289 289 289 289 289 289 289 288 289 289 289 289 289 289 289 290
329 329 328 327 325 327 326 325 325 324 323 325 326 326 324 324 323 321 321 320 320 319 317 314 313 311 308 306 305 305 305 304 304 303 303 303 302 301 300 298 296 295 295 294 294 294 293 293 293 292 292 292 291 291 291 291 291 290 290 290 290 290 289 289 289 289 289 289 289 288 288 288 288 288 288 288 288 288 288 288 288 288 288 288 288
327 329 329 328 325 324 323 324 325 324 324 325 325 324 323 323 322 321 319 319 319 318 314 311 310 309 308 306 305 305 304 304 303 303 303 302 301 300 298 296 295 294 293 293 293 292 292 292 292 291 291 291 291 291 291 291 290 290 290 290 290 289 289 289 288 288 288 288 288 288 288 288 287 288 287 287 287 287 287 287 288 288 288 289 289
325 325 326 327 326 323 323 326 324 323 325 325 324 323 323 322 321 320 319 319 318 315 311 308 307 307 307 306 305 304 304 304 303 303 302 301 300 298 296 295 294 293 293 292 292 291 291 291 291 291 291 291 291 291 290 290 290 290 290 290 289 289 288 288 288 288 287 287 287 287 287 287 287 287 287 287 287 287 287 287 289 290 290 291 291
323 322 322 323 324 322 322 323 322 323 325 324 324 323 322 321 321 320 320 321 317 312 310 308 306 306 305 305 304 304 304 303 303 302 301 299 298 297 295 294 293 292 292 291 291 291 291 291 291 291 290 290 290 290 290 290 290 290 290 289 288 288 288 287 287 287 287 287 287 287 287 287 287 287 287 287 287 287 287 287 289 290 292 293 292
321 321 321 319 321 322 319 319 322 325 324 323 322 321 321 321 321 321 320 319 314 308 309 308 305 304 303 304 304 303 303 302 302 300 299 298 297 295 294 293 292 291 291 291 290 290 291 290 290 290 290 290 290 290 290 290 290 289 289 288 288 288 287 287 287 287 287 287 287 287 287 287 287 287 287 287 287 287 288 288 289 290 293 293 292
322 322 322 319 322 324 319 319 324 325 323 323 321 320 321 320 322 321 317 315 310 305 306 306 304 303 302 302 303 301 300 300 300 298 297 297 296 294 293 292 291 291 291 290 290 290 290 290 290 290 290 290 290 290 290 289 289 289 288 288 288 287 287 287 287 287 287 287 287 287 287 287 287 287 287 287 287 287 287 289 290 291 292 292 291
319 322 322 321 324 326 322 321 322 323 322 322 320 319 321 321 321 319 311 308 306 303 303 304 302 302 301 301 301 300 299 298 298 297 296 295 294 293 292 291 290 290 290 290 290 290 290 290 290 290 289 289 289 289 289 289 288 288 287 287 287 287 287 287 287 287 287 287 287 287 287 287 287 287 287 286 287 286 287 289 290 291 292 291 291
319 321 322 322 323 323 322 321 320 320 321 321 319 319 322 321 316 311 305 302 302 301 302 302 301 301 301 301 300 300 300 299 298 296 294 294 293 292 291 290 290 290 289 289 289 290 289 289 289 289 289 289 289 289 288 288 288 287 287 287 287 287 287 287 287 287 287 287 287 287 287 287 287 287 286 286 286 288 288 289 290 291 291 291 291
319 320 320 321 321 321 321 320 319 320 320 319 320 321 320 314 306 302 301 301 301 301 302 302 300 300 300 300 300 300 299 298 297 294 293 292 292 291 290 290 290 289 289 289 289 289 289 289 289 289 289 289 288 288 288 287 287 287 287 287 287 287 287 287 287 287 287 287 287 287 287 287 287 286 286 286 287 289 289 289 290 291 290 291 291
318 319 319 318 319 320 320 319 319 320 320 319 320 318 312 304 300 300 300 301 301 301 301 301 300 300 300 299 299 298 297 296 296 294 293 292 291 290 290 290 289 289 289 289 289 289 289 289 289 288 288 288 288 288 287 287 287 287 287 287 287 287 287 287 287 287 287 287 287 287 287 287 286 286 286 286 288 290 290 289 290 291 290 291 291
317 319 318 317 317 318 318 319 319 318 317 316 315 310 303 299 299 299 299 301 300 300 301 301 301 301 300 299 298 297 296 295 295 294 293 292 291 290 290 289 289 289 289 289 288 288 288 288 288 288 288 288 288 287 287 287 286 286 286 287 287 287 287 286 286 286 287 287 286 286 286 286 286 286 286 286 288 290 289 288 289 289 289 290 291
317 318 317 317 317 317 318 319 317 314 312 310 306 302 299 299 300 300 300 300 300 300 301 301 301 301 300 299 298 297 296 295 294 294 293 292 291 291 290 289 289 289 288 288 288 288 288 288 288 288 288 287 287 287 286 286 286 286 287 286 287 286 286 286 286 286 286 286 286 286 286 286 286 286 286 285 287 289 288 287 288 289 289 290 291
316 317 316 317 317 317 318 318 315 310 306 304 301 299 299 299 301 301 301 301 301 301 301 301 301 301 300 299 299 297 296 295 294 293 293 292 292 291 290 290 289 289 288 288 288 288 288 288 288 287 287 287 287 286 286 286 286 286 286 286 286 286 286 286 286 286 286 286 286 286 286 286 286 285 285 285 286 288 288 287 288 289 288 289 290
316 316 316 317 317 317 318 317 312 305 302 301 299 299 299 300 301 301 300 301 302 302 302 301 300 300 300 299 298 297 296 295 294 294 293 293 292 291 290 289 289 288 288 288 288 288 287 287 287 287 287 287 286 286 286 286 286 286 286 286 286 286 286 286 286 286 286 286 286 286 286 285 285 285 285 285 285 286 287 287 288 287 287 288 288
316 316 316 316 316 317 317 314 307 302 300 299 298 298 299 300 301 301 301 301 301 302 302 302 301 300 300 298 297 295 294 294 294 293 293 292 291 291 290 289 288 288 288 288 288 287 287 287 287 287 287 286 286 286 286 286 286 286 286 286 286 286 286 286 286 286 286 286 286 286 285 285 285 285 285 285 285 285 285 286 286 286 286 286 286
316 316 316 316 316 316 315 310 303 300 299 298 297 298 300 301 301 301 302 301 302 302 302 301 300 299 298 297 296 295 294 294 293 293 292 291 291 290 289 289 288 288 288 288 287 287 287 287 287 287 286 286 286 286 286 286 286 286 285 285 285 285 285 285 286 286 286 286 285 285 285 285 284 284 284 284 285 285 285 285 284 285 285 285 285
315 315 316 316 316 315 311 305 300 298 297 297 297 298 300 301 301 301 301 301 302 301 301 300 299 298 297 296 295 294 294 293 293 292 292 291 290 290 289 289 288 288 288 287 287 287 287 287 287 286 286 286 286 286 286 285 285 285 285 285 285 285 285 285 285 285 285 285 285 285 285 284 284 284 284 284 284 284 284 284 284 284 284 284 284
314 315 316 316 315 313 308 301 298 297 297 297 298 299 300 300 301 301 301 301 301 301 300 299 298 297 296 295 294 294 293 293 292 292 291 291 290 290 289 289 288 288 287 287 287 287 287 287 287 286 286 286 286 285 285 285 285 285 285 285 285 285 285 285 285 285 285 285 285 284 284 284 284 284 284 284 284 284 284 284 283 283 283 283 283
314 315 315 315 313 309 303 298 297 296 296 297 298 299 300 300 300 301 301 301 300 300 299 298 297 297 296 295 294 294 293 292 292 291 291 290 290 289 289 289 288 288 287 287 287 287 287 287 286 286 286 286 285 285 285 285 285 285 285 285 285 284 284 285 285 285 285 285 284 284 284 283 283 284 284 284 284 284 283 283 283 283 283 282 282
314 315 316 314 311 305 299 297 296 296 296 297 298 299 300 300 300 301 301 300 300 299 298 298 297 296 295 295 294 293 293 292 292 291 291 290 290 289 289 288 288 288 287 287 287 287 287 286 286 286 286 286 285 285 285 285 285 285 284 284 284 284 284 284 285 285 284 284 284 284 284 283 283 284 284 284 284 283 283 283 282 282 282 282 282
314 316 315 311 306 301 297 296 296 296 296 297 298 299 299 300 300 300 300 299 299 298 298 297 296 295 295 294 293 293 292 292 291 291 290 290 289 289 289 288 288 288 287 287 287 287 287 286 286 286 286 285 285 285 285 285 285 284 284 284 284 284 284 284 284 284 284 284 284 284 283 283 283 283 283 284 283 283 282 282 282 282 281 281 281
314 315 312 307 302 298 296 296 295 295 296 297 298 299 299 300 300 300 299 298 298 298 297 296 296 295 294 294 293 292 292 291 291 290 290 290 289 289 288 288 288 287 287 287 287 287 287 286 286 286 285 285 285 285 284 284 284 284 284 284 284 284 284 284 284 284 284 284 284 283 283 283 283 283 283 283 283 282 282 282 281 281 281 280 280
314 314 309 304 299 297 296 295 295 295 296 297 298 299 299 299 299 299 299 298 297 297 297 296 295 294 293 293 292 292 291 291 290 290 290 289 289 289 288 288 287 287 287 287 287 287 287 286 286 285 285 285 285 285 284 284 284 284 283 283 284 284 284 284 283 283 284 284 284 283 283 283 283 283 283 283 282 282 281 281 281 281 280 280 280
315 312 307 301 297 296 296 295 295 295 296 297 298 299 299 299 299 298 298 298 297 297 296 295 294 293 292 292 292 291 291 290 290 289 289 289 289 288 288 288 287 287 287 286 286 287 286 286 285 285 285 285 285 284 284 284 284 283 283 283 283 283 283 283 283 283 283 283 283 283 283 282 283 283 283 282 282 282 281 281 280 280 280 279 279
313 310 304 298 296 296 295 295 295 295 296 297 298 298 298 298 298 298 297 297 297 297 296 295 294 293 292 291 291 291 290 290 289 289 289 288 288 288 288 287 287 287 287 286 286 286 286 286 285 285 285 285 285 284 284 284 283 283 284 284 283 283 283 283 283 283 283 283 283 283 282 282 282 283 283 282 281 281 281 280 280 280 279 279 279
311 308 302 297 296 295 295 295 295 295 296 297 297 298 298 298 298 297 297 297 297 296 295 294 293 292 292 291 291 290 290 289 289 289 288 288 288 288 287 287 287 287 287 286 286 286 286 286 286 285 285 285 284 284 283 283 283 283 284 284 283 283 283 283 283 283 283 283 283 283 282 282 282 283 282 282 281 281 281 280 280 279 279 279 279
311 308 301 296 295 295 295 295 294 295 296 296 297 297 297 297 297 297 296 296 295 295 294 293 292 292 291 291 290 290 289 289 289 288 288 288 288 288 287 287 287 287 287 286 286 286 286 286 286 286 285 285 284 284 283 283 283 283 284 284 283 283 283 283 283 283 283 283 283 283 282 282 282 283 282 281 281 281 281 280 280 279 279 279 278
310 307 301 296 295 295 295 294 295 295 295 295 296 296 296 296 296 295 295 294 294 294 293 293 292 292 291 290 290 289 289 289 288 288 288 288 288 287 287 287 287 287 287 286 286 286 286 286 286 286 285 285 285 284 283 283 283 283 284 284 284 283 283 283 283 283 283 283 283 283 282 282 282 282 282 281 281 281 280 280 279 279 279 278 278
309 307 301 296 294 295 294 294 294 294 295 295 295 295 296 295 295 294 294 293 293 293 292 292 292 291 292 292 291 290 289 288 288 288 288 288 287 287 287 287 287 287 287 286 286 286 286 286 286 286 286 285 285 284 284 283 283 284 284 284 284 284 284 284 284 283 283 283 283 283 282 282 282 282 282 281 280 281 280 280 279 279 278 278 278
309 306 301 296 294 294 294 294 294 294 294 294 295 295 294 294 294 293 293 293 293 292 292 292 291 292 293 294 292 290 289 288 288 288 288 288 287 287 287 287 287 287 287 287 286 286 286 286 286 286 286 285 285 285 284 284 283 284 284 284 284 284 284 284 284 284 283 283 283 283 283 282 282 282 282 281 280 280 280 280 279 279 278 278 278
308 305 301 296 294 294 294 294 294 294 294 294 294 294 293 293 293 292 292 292 292 292 292 291 291 293 294 294 293 291 289 288 288 288 288 287 287 287 287 287 287 287 286 286 286 286 286 286 286 286 286 286 285 285 285 284 284 284 283 283 284 284 284 284 284 284 284 284 283 283 283 282 282 282 282 281 281 280 280 280 279 278 278 278 278
307 304 300 295 293 293 293 293 293 293 294 293 293 293 293 293 292 292 292 291 292 293 292 291 291 293 294 295 294 292 290 289 288 288 288 287 287 287 287 287 286 286 286 286 286 286 286 286 286 286 286 286 286 286 285 284 284 284 284 283 284 284 284 284 284 284 284 284 284 284 284 283 282 282 283 282 281 281 280 280 279 278 278 278 277
306 303 299 295 293 293 293 293 293 293 293 293 293 293 292 292 292 291 291 291 293 293 291 290 291 292 294 294 294 293 292 291 290 290 288 287 287 287 287 287 286 286 286 286 286 286 286 286 286 286 286 286 286 286 285 285 284 284 284 284 284 284 284 284 284 284 284 284 284 284 284 283 282 282 283 282 281 281 281 280 279 278 278 277 277
304 302 299 295 293 293 293 293 293 293 293 293 293 292 292 292 291 291 291 293 294 292 290 290 290 292 293 294 294 293 293 292 291 290 289 287 287 287 287 287 286 286 286 286 286 286 286 286 286 286 286 286 286 286 285 285 285 284 284 284 284 284 283 283 284 284 284 284 284 284 284 284 283 282 283 282 281 280 281 280 279 278 277 277 277
303 301 299 296 293 293 293 293 293 293 293 293 292 293 292 292 291 290 292 294 294 291 289 289 290 291 293 294 294 293 293 292 292 290 288 287 287 287 287 287 287 287 286 286 286 286 286 286 286 286 286 286 286 286 285 285 285 284 284 284 284 284 283 283 283 283 283 283 283 283 285 285 283 283 283 282 280 280 280 280 279 278 277 277 277
302 299 298 295 293 292 293 293 293 293 293 293 292 293 292 292 291 291 293 294 293 290 289 289 290 291 292 293 293 293 292 292 291 290 289 287 287 287 287 287 287 287 287 287 287 286 286 286 286 286 286 286 286 286 285 285 285 285 285 285 284 284 284 283 284 283 283 283 283 282 284 285 284 283 283 282 280 280 280 280 279 278 277 277 277
301 298 296 294 292 292 292 292 292 293 292 292 292 292 292 292 291 291 293 293 292 289 289 289 290 291 291 292 293 293 292 291 291 290 289 288 287 287 287 287 288 288 287 287 287 287 287 286 286 286 286 286 286 286 286 285 285 285 285 284 284 284 284 283 284 284 284 283 282 281 283 285 283 282 283 281 280 280 279 279 279 278 277 277 276
302 297 294 293 292 291 292 292 292 292 292 292 291 291 292 291 290 291 293 293 291 289 290 290 290 290 290 291 293 292 291 290 290 290 289 288 287 287 287 287 287 287 287 287 287 287 286 286 286 286 286 286 286 286 286 285 285 285 284 284 284 283 283 283 284 284 284 283 281 280 281 284 282 281 282 281 280 280 279 279 279 278 277 277 276
302 298 294 292 291 291 291 291 291 291 291 291 290 291 292 291 290 292 293 292 290 290 290 290 290 290 290 291 292 292 291 290 290 290 289 288 287 287 287 287 287 287 287 287 287 286 286 286 286 286 286 286 285 285 285 285 285 285 284 283 283 282 282 283 284 284 283 282 281 278 279 281 281 279 281 281 280 280 279 279 279 278 278 277 276
302 300 295 292 290 290 290 290 290 290 290 290 290 291 291 290 290 293 293 292 291 290 290 290 290 290 290 291 292 292 291 290 290 290 289 288 287 287 287 287 287 287 287 287 287 286 286 286 286 286 285 285 285 285 285 284 284 283 282 283 283 282 281 282 283 283 282 281 280 278 277 279 279 278 279 281 280 279 279 279 279 278 278 277 276
301 300 298 295 292 290 289 289 289 289 289 289 290 290 290 289 291 293 293 291 290 290 290 290 290 290 290 290 291 292 291 290 290 289 289 288 287 287 287 287 287 287 287 287 287 287 286 286 286 285 285 285 285 284 284 284 283 281 281 282 282 281 281 281 282 282 281 280 279 277 276 278 277 276 277 279 280 280 279 279 279 278 278 277 276
298 297 296 295 293 291 288 288 288 288 288 289 290 289 289 290 292 294 292 291 290 290 290 290 290 290 290 290 291 291 291 290 289 289 288 288 287 287 286 286 286 287 287 287 286 286 286 286 286 285 285 285 284 284 284 283 282 280 280 280 281 280 280 280 280 279 279 278 278 276 276 276 276 275 276 276 278 279 280 279 278 278 277 276 276
Wind_Speed
11 12 13 11 9 9 8 7 7 7 7 7 7 6 5 4 6 8 7 5 4 5 7 7 8 10 10 9 9 10 12 12 13 13 14 14 14 14 13 13 13 13 14 15 14 14 15 16 16 15 14 14 15 15 14 15 15 16 16 17 17 17 17 18 18 19 20 21 23 24 24 24 24 24 24 24 24 24 24 23 23 23 23 22 22
12 14 15 13 12 11 10 8 7 6 4 4 5 5 3 2 4 7 6 5 4 5 8 8 8 9 10 9 9 10 11 12 12 13 14 14 14 14 14 14 14 13 13 13 12 12 12 13 14 16 15 13 13 13 13 14 16 16 16 17 17 17 16 16 17 19 21 22 24 24 24 24 24 25 25 25 25 25 25 25 24 24 24 25 24
13 15 18 17 15 14 11 8 6 5 5 3 4 5 6 4 2 5 5 4 4 5 7 6 6 8 8 7 8 8 9 11 12 13 13 14 14 14 13 13 12 11 11 11 11 10 10 10 11 15 15 12 13 14 14 16 16 16 15 15 16 17 18 18 19 21 22 23 24 25 25 25 26 26 27 27 26 27 27 26 26 26 26 26 27
15 16 20 21 17 14 11 8 7 6 7 5 4 7 10 8 5 4 4 2 3 4 6 5 4 5 5 5 6 5 7 10 11 12 12 12 12 11 10 10 10 9 10 10 10 10 11 11 10 11 12 11 13 15 15 16 15 15 15 16 17 18 19 20 21 22 23 24 24 25 26 27 27 28 28 28 28 28 29 28 28 29 29 29 29
17 17 19 21 17 14 13 10 8 9 11 8 6 9 13 11 8 5 4 4 2 3 4 3 2 3 3 2 3 4 7 9 9 10 10 10 10 9 9 9 9 9 10 11 11 11 11 11 11 11 11 12 13 13 13 14 14 14 16 17 18 19 19 19 21 22 22 23 24 24 25 26 27 27 27 28 29 29 29 29 29 30 31 31 31
18 17 18 20 19 16 15 12 11 14 15 11 9 12 16 15 10 7 7 7 2 1 1 1 2 3 4 2 2 5 8 8 9 9 9 9 9 9 9 9 10 10 11 12 12 12 12 12 12 12 12 12 13 12 13 13 13 14 15 17 17 17 18 19 21 21 22 23 24 25 25 26 27 26 26 28 28 28 28 28 29 29 29 31 32
19 18 18 20 20 18 17 14 14 17 17 14 13 15 19 18 13 10 10 8 3 2 2 1 4 6 5 3 1 5 8 7 9 8 8 8 8 8 9 9 10 10 11 11 11 11 12 12 12 12 12 12 12 12 12 12 12 13 14 16 16 17 18 20 21 21 22 23 24 25 25 26 27 27 28 29 28 28 29 30 30 30 29 30 32
19 20 19 19 19 18 19 17 17 19 18 17 17 19 22 20 16 11 10 8 3 3 4 3 6 8 5 3 3 6 7 7 7 6 6 7 7 7 8 8 9 10 10 11 11 11 11 11 12 12 11 11 11 11 11 11 12 12 13 15 16 17 18 19 20 21 22 23 23 24 25 26 27 28 29 29 30 30 31 32 32 32 32 32 32
21 23 21 20 19 18 21 20 19 19 18 19 21 24 24 21 18 14 10 8 5 5 6 7 9 8 6 4 6 7 6 5 4 4 5 5 6 7 8 8 9 10 10 10 10 10 10 10 10 10 10 10 10 10 10 11 12 12 13 14 16 18 19 20 21 21 22 23 24 25 26 27 27 28 29 30 31 32 32 33 33 33 34 34 34
23 24 21 21 21 21 21 21 19 17 17 21 25 25 22 19 16 14 12 9 7 7 8 11 11 8 7 7 7 5 3 2 2 3 3 4 6 7 7 8 9 9 8 8 8 8 9 9 9 9 9 10 10 10 11 11 12 13 14 15 17 18 20 21 22 22 23 24 25 25 26 27 28 29 30 31 32 32 33 34 34 35 35 35 35
22 21 18 19 22 23 21 19 18 16 17 22 26 24 19 17 15 12 11 9 8 9 10 13 12 9 9 8 6 3 1 0 2 2 4 5 6 7 7 8 7 7 7 7 7 8 8 8 9 9 10 11 11 11 12 13 13 13 14 15 17 19 20 21 22 23 24 25 26 26 27 28 29 30 31 32 32 33 34 35 35 36 36 36 36
24 24 22 22 23 22 20 19 17 17 18 20 23 21 16 16 15 12 12 13 12 11 11 11 11 12 10 7 5 3 2 2 4 4 5 6 6 7 7 7 7 7 7 7 7 8 8 9 10 10 11 11 12 12 13 13 14 14 15 16 17 19 20 21 22 23 24 25 26 27 28 29 29 30 31 31 32 33 34 35 34 34 34 34 35
27 28 26 26 25 22 21 20 18 18 20 20 20 19 17 17 16 14 14 15 15 14 12 10 9 10 10 7 5 4 4 5 5 6 6 6 6 6 7 7 7 6 6 7 7 8 8 9 10 10 11 12 12 13 14 14 15 16 17 17 17 18 19 20 21 22 23 25 25 26 27 27 28 29 29 30 31 32 33 34 33 32 31 31 33
25 24 23 22 22 23 22 21 20 22 23 21 19 18 19 20 18 17 16 15 15 16 15 12 10 7 6 6 7 7 6 6 7 7 7 7 7 7 6 6 6 6 6 7 7 7 8 9 9 10 11 12 13 14 14 15 16 16 16 16 16 16 17 19 20 21 23 24 25 25 26 27 28 29 30 30 31 32 33 33 33 32 30 31 33
24 23 21 19 21 25 24 21 22 24 23 22 20 19 21 21 20 20 18 17 16 16 16 13 10 9 7 7 8 9 7 8 9 8 8 8 7 6 6 6 5 5 5 5 6 7 7 8 9 10 11 12 13 14 14 15 15 15 14 14 14 15 17 18 19 21 22 23 24 25 26 27 28 29 30 31 31 33 33 32 32 33 32 33 35
27 26 22 19 20 24 23 21 24 24 24 25 23 22 23 23 22 20 18 18 18 17 16 14 11 9 8 8 9 9 8 9 10 10 9 9 7 6 6 5 5 5 4 4 5 6 6 7 8 9 10 11 12 13 13 14 14 13 12 13 14 15 16 17 19 20 21 22 23 24 26 27 28 30 30 31 32 33 33 33 32 33 34 35 36
26 28 26 24 24 24 23 25 27 27 27 26 24 24 24 23 22 20 16 14 15 17 17 15 12 10 8 7 8 8 8 9 10 9 10 9 8 7 6 5 5 4 4 4 4 5 5 6 7 9 10 10 11 12 13 12 11 10 11 12 14 14 16 17 18 19 21 22 24 25 27 28 30 31 31 32 33 32 32 33 32 33 35 36 36
23 27 29 30 30 29 27 28 28 27 26 26 26 26 25 24 21 19 17 12 12 16 16 15 12 10 9 6 6 6 8 9 10 10 10 11 10 9 7 6 5 5 4 5 4 4 5 6 7 8 9 9 10 11 11 10 9 9 11 12 13 14 15 16 18 19 21 23 25 26 28 29 30 31 32 33 32 30 31 33 33 34 36 37 37
22 27 29 29 29 30 29 27 26 27 27 26 27 26 25 24 21 19 18 16 14 14 13 13 10 9 9 7 7 7 7 9 11 11 11 12 12 11 9 8 7 6 6 5 5 4 5 5 6 7 8 9 10 10 9 8 7 8 10 11 12 14 15 17 18 20 22 23 25 26 28 29 30 31 32 33 31 28 30 33 33 34 36 37 38
25 30 29 26 27 29 28 24 23 26 28 26 26 27 26 25 23 21 19 17 15 13 11 11 9 8 8 7 8 9 9 10 11 11 11 12 14 14 12 11 9 8 7 6 5 4 4 5 6 6 7 8 9 8 7 6 6 7 8 10 12 14 15 17 18 20 22 23 24 26 27 29 30 31 32 33 31 29 31 33 33 35 36 38 38
28 31 29 27 27 27 26 24 24 27 27 27 27 27 26 25 24 23 20 18 16 14 11 10 8 7 7 7 8 9 11 12 12 13 13 13 14 15 14 13 11 10 8 7 5 5 5 5 6 6 7 8 8 7 6 5 6 7 8 10 12 13 15 16 18 20 21 23 24 26 27 28 29 30 31 32 31 30 33 36 36 35 36 37 38
30 32 30 29 28 27 26 25 25 27 27 28 28 27 25 24 23 21 20 18 16 14 12 11 9 7 6 7 8 10 12 13 14 15 15 15 14 14 14 13 12 11 9 7 6 5 6 6 7 7 8 8 8 8 6 5 6 7 8 10 11 12 14 16 17 19 21 22 24 25 27 28 29 30 31 32 33 31 33 36 35 35 36 36 37
32 32 31 31 30 28 27 25 26 28 28 27 27 26 25 25 23 21 19 17 15 14 12 11 9 7 6 7 8 10 11 12 13 14 14 14 13 12 13 14 12 11 9 8 7 7 7 7 8 8 8 9 9 8 8 7 7 8 9 10 11 12 14 15 17 19 21 22 24 26 28 29 30 30 31 32 33 33 34 35 34 35 37 36 37
33 33 32 32 31 30 27 27 28 29 28 27 26 26 26 25 23 21 20 18 16 13 11 10 8 6 5 7 9 11 12 11 11 12 12 11 10 10 12 13 11 10 9 8 8 8 8 8 8 9 9 10 10 10 9 9 9 9 10 11 12 13 14 16 18 19 21 23 25 27 29 30 30 30 31 32 33 34 35 35 36 37 37 37 38
33 34 34 33 32 30 28 29 30 29 28 28 28 28 27 25 23 21 19 18 15 12 10 8 6 5 6 8 10 11 12 11 11 11 10 10 9 9 10 11 11 10 9 9 9 9 9 9 9 10 10 11 11 11 11 11 11 11 12 13 14 15 16 17 18 20 22 24 26 28 29 30 30 30 31 31 32 34 35 36 37 37 37 38 39
33 34 34 33 32 30 29 31 31 29 29 29 29 28 27 25 23 21 19 17 15 12 10 9 7 7 7 9 10 10 11 11 10 10 9 9 9 9 10 11 11 11 11 10 10 10 11 11 10 11 11 12 12 13 13 13 14 14 14 15 15 16 17 18 20 22 24 25 26 28 29 30 30 30 30 31 32 34 36 37 38 38 39 39 39
33 35 35 34 32 31 31 32 31 30 30 31 30 29 27 25 23 21 19 17 15 13 11 10 8 8 8 9 10 10 10 10 10 9 9 9 9 9 10 11 11 12 12 12 12 12 12 12 12 12 12 13 13 14 15 15 16 16 17 17 18 18 19 19 21 23 24 26 27 28 29 30 29 30 30 31 33 35 35 36 37 38 39 39 39
31 35 36 34 33 33 34 34 32 32 32 32 31 29 27 26 24 22 20 18 15 13 12 11 9 9 9 9 9 9 10 10 10 10 10 10 10 11 12 13 13 13 13 13 14 13 13 13 13 13 13 13 14 15 16 17 17 18 19 20 20 21 21 21 22 24 25 26 27 28 29 29 29 30 31 32 33 34 35 36 37 38 38 38 38
31 34 35 35 35 35 36 35 33 33 33 33 31 30 28 26 24 21 19 18 16 14 13 11 9 9 9 9 9 9 10 10 10 10 11 11 12 13 14 14 15 14 15 15 15 14 13 14 14 15 14 14 15 16 17 19 19 20 20 21 23 23 23 23 24 25 26 27 28 29 29 29 29 30 30 32 33 34 35 36 36 37 38 37 37
31 34 35 36 38 38 37 36 35 35 34 34 33 31 28 26 24 21 19 18 15 13 12 10 9 9 10 10 10 10 10 10 10 11 12 12 13 14 15 15 16 16 16 16 16 16 15 14 15 16 16 16 16 17 18 20 21 22 22 23 24 25 25 25 25 25 26 27 28 29 29 29 28 29 30 31 33 34 34 35 36 37 37 36 36
31 34 36 39 40 40 39 37 37 36 36 35 33 31 29 26 24 21 19 18 15 13 11 10 10 10 11 11 11 11 11 11 11 12 12 13 14 14 15 16 16 17 17 17 18 18 16 16 16 17 18 18 18 18 20 21 23 24 23 24 25 26 26 25 25 25 26 27 28 29 28 28 27 28 30 31 33 33 33 34 36 36 36 36 36
31 34 37 41 42 41 40 39 38 38 37 36 34 31 29 26 24 22 19 17 15 13 11 10 10 11 11 12 12 12 12 11 12 12 12 13 14 15 16 16 17 18 17 18 20 20 18 18 19 20 20 20 20 20 22 22 23 25 25 26 26 27 26 26 25 25 26 27 28 29 28 27 27 28 29 31 32 32 33 34 35 35 35 35 35
31 34 38 42 42 41 41 40 39 38 38 37 34 32 29 27 25 22 19 16 14 12 11 10 11 11 12 12 13 12 12 12 12 13 13 13 14 15 16 17 18 18 18 19 21 21 20 20 20 21 22 22 22 22 23 24 24 26 27 27 28 28 27 27 26 25 26 28 29 29 27 26 26 28 29 31 31 31 32 33 34 34 34 35 35
31 34 40 43 42 42 41 40 40 39 38 37 35 32 30 27 25 22 19 17 14 12 11 10 10 11 12 12 13 13 13 13 13 13 14 14 15 16 16 18 18 19 19 20 21 23 23 21 21 22 23 24 24 23 24 25 26 27 28 29 29 29 29 28 28 27 27 28 29 29 27 26 26 28 29 31 31 31 31 32 32 33 33 34 34
31 35 41 43 43 42 42 41 41 40 39 37 35 33 30 27 24 22 19 17 14 12 10 10 10 11 11 12 13 13 13 14 14 14 15 15 16 16 17 18 19 19 20 21 22 23 24 24 24 24 24 25 25 25 25 27 28 29 30 30 31 31 30 30 29 28 28 29 30 30 27 26 26 28 30 31 30 30 31 31 31 32 33 33 34
31 36 42 44 44 43 43 42 41 40 39 38 35 33 30 27 24 22 19 16 14 12 10 10 10 10 11 12 13 14 14 15 15 15 15 16 16 17 18 19 20 20 20 21 22 23 25 26 26 26 26 27 27 26 27 28 29 30 31 31 32 32 32 31 31 29 28 29 31 31 28 26 26 28 30 30 30 30 30 30 31 32 33 33 34
32 36 43 45 45 45 44 43 42 41 39 37 35 32 29 27 24 22 19 16 14 12 10 10 10 10 10 11 13 14 15 16 16 16 16 16 17 18 19 20 20 21 21 22 23 24 26 27 27 28 28 29 29 28 28 29 30 30 31 32 32 33 32 32 31 30 29 29 31 32 29 26 26 28 30 30 29 29 30 30 30 32 32 33 33
33 38 44 47 46 45 43 42 41 40 38 36 34 32 29 27 24 22 19 17 15 13 11 11 10 10 10 12 13 15 16 17 17 16 17 18 19 19 20 21 21 22 22 23 24 25 26 27 28 29 30 30 30 30 29 30 31 32 32 33 33 33 33 33 33 32 31 31 32 33 32 28 26 28 31 30 28 29 30 30 30 31 32 32 33
34 39 45 48 47 45 43 42 41 39 38 36 34 31 29 26 24 21 19 17 15 13 12 11 11 11 13 14 14 15 16 17 17 17 18 19 20 21 22 22 23 23 24 24 25 26 27 28 29 30 31 31 31 31 30 31 32 32 32 34 35 34 34 34 34 33 32 32 33 34 33 30 28 29 32 31 29 29 30 31 30 30 31 32 32
34 39 45 48 47 45 43 42 41 39 38 36 34 31 28 26 24 22 20 17 15 14 13 13 13 14 15 16 16 16 16 18 18 19 20 21 23 23 23 24 24 24 25 26 27 27 28 29 30 31 31 32 32 31 31 31 32 32 32 33 35 35 35 35 35 35 34 33 33 35 35 32 30 32 34 33 30 30 31 31 31 31 31 31 31
34 37 44 48 48 46 44 42 41 40 39 37 33 30 28 26 24 22 20 18 17 16 16 16 15 16 16 18 19 18 18 18 19 20 21 23 25 25 25 25 25 26 26 27 28 28 28 30 31 32 32 33 33 32 31 31 31 32 32 33 35 36 36 36 36 36 35 34 33 36 37 36 32 33 36 35 32 32 32 31 32 32 32 31 30
33 37 43 48 49 46 44 43 42 41 39 36 33 30 28 26 24 22 21 20 19 18 18 18 17 17 18 21 22 21 21 21 21 21 22 24 26 26 26 26 27 27 28 28 28 28 28 30 31 32 33 33 33 32 31 31 31 32 33 34 36 37 37 38 38 37 36 35 35 37 39 39 35 34 37 36 34 34 34 32 33 33 32 30 29
33 36 42 47 49 47 45 43 42 41 39 36 33 30 28 27 25 24 24 24 22 20 20 21 19 19 21 24 25 24 24 24 23 22 23 25 27 27 27 27 27 28 29 30 29 29 29 30 31 32 33 34 33 32 31 31 31 32 33 35 37 38 39 40 40 39 38 37 37 38 40 41 38 35 38 38 35 35 36 34 33 33 31 29 28
31 35 40 46 48 47 46 44 42 41 39 36 33 31 30 28 27 27 27 27 23 21 23 23 22 23 25 26 27 26 25 25 24 23 24 26 27 28 28 28 29 30 30 31 31 30 30 31 32 32 33 34 34 33 32 31 31 33 35 36 38 39 40 41 42 41 40 39 37 38 41 43 39 37 39 39 36 36 37 36 34 33 31 28 28
30 34 39 45 48 48 46 45 43 41 39 37 34 32 31 30 29 30 30 27 24 23 25 25 26 29 28 28 28 27 25 25 24 24 25 27 29 29 30 30 31 32 32 33 32 32 32 33 33 34 34 35 36 35 33 32 33 35 36 37 38 39 41 43 43 43 42 39 37 38 42 44 41 39 41 40 38 38 38 37 36 35 32 27 27
30 34 38 44 47 48 46 45 43 41 39 37 35 33 31 31 31 31 30 27 24 25 27 29 32 33 31 30 31 28 26 26 26 26 28 29 31 32 32 33 33 34 35 35 35 35 35 35 35 36 36 37 38 37 36 35 36 37 38 38 39 40 42 44 44 44 43 40 37 38 42 44 41 40 42 42 40 39 38 37 37 36 33 28 28
30 32 37 42 45 46 45 44 43 42 40 37 35 33 32 32 32 32 30 27 26 28 30 33 35 36 34 34 33 30 29 28 28 29 30 32 33 35 35 36 36 36 37 38 38 37 38 38 38 39 39 40 40 40 40 40 40 40 40 40 41 42 42 43 44 44 44 42 39 37 40 43 41 40 43 43 41 40 39 38 38 37 34 30 29
30 31 35 40 43 45 45 44 44 42 40 37 34 33 32 33 33 32 31 28 28 31 33 35 36 37 37 37 36 33 31 31 31 32 32 34 36 38 39 39 39 39 40 40 39 39 40 40 41 42 42 42 43 43 43 43 44 43 42 43 44 43 41 42 44 45 45 44 41 38 39 43 41 40 42 43 43 42 41 38 39 38 36 33 32
29 30 33 37 40 42 43 44 43 42 39 36 34 33 33 33 32 32 31 30 31 34 35 36 37 39 39 39 38 37 36 35 35 35 35 37 39 40 41 41 41 43 44 43 41 41 41 42 43 44 44 44 45 45 45 46 46 44 43 45 46 42 40 41 44 45 45 45 44 40 39 41 39 37 41 44 44 44 41 39 39 38 37 37 35
27 28 29 31 34 37 39 40 40 39 38 35 33 32 32 32 32 33 32 32 33 36 36 37 38 40 41 42 41 41 40 39 38 39 39 39 41 43 43 44 44 47 48 46 44 44 44 44 45 45 46 46 46 46 46 46 45 41 41 46 47 42 40 41 43 45 45 46 45 38 35 37 37 37 41 44 45 45 42 38 38 39 39 40 38
23 23 24 25 28 32 34 35 35 35 34 32 31 31 32 32 34 35 33 33 35 36 37 38 40 41 43 44 44 44 43 42 42 42 42 42 43 45 45 46 48 51 50 48 48 48 48 48 48 48 48 48 47 47 47 47 45 42 42 45 45 43 41 42 43 44 44 45 42 35 33 37 38 37 38 40 43 46 45 41 40 41 41 41 40
Wind_Direction
214 208 206 205 198 200 198 177 166 161 148 139 143 135 126 142 129 124 126 121 116 94 71 55 55 55 48 44 45 44 46 51 53 56 62 65 67 67 63 63 61 60 60 61 63 63 61 61 57 47 42 39 37 35 30 24 24 29 25 21 23 22 23 24 16 5 0 356 356 357 359 0 0 359 357 358 359 355 352 350 349 349 347 344 340
215 210 209 207 200 198 200 189 174 171 165 138 142 141 145 206 121 115 108 82 69 69 59 49 55 53 44 45 53 53 51 54 57 61 66 67 67 68 64 59 57 53 53 56 56 53 51 49 49 49 44 35 31 33 30 24 29 34 31 29 28 20 14 11 1 355 353 352 352 353 353 352 351 351 351 353 354 351 349 347 347 349 349 347 342
217 216 214 207 198 199 203 194 186 189 192 170 161 175 183 197 139 109 98 66 50 56 54 55 64 51 44 53 59 57 51 52 59 64 64 65 65 62 61 56 53 51 50 53 51 44 41 37 41 50 50 40 37 40 39 39 40 36 28 22 20 12 6 2 356 354 352 352 353 353 351 349 348 348 347 347 346 345 344 342 342 342 342 341 339
219 216 213 206 196 199 208 200 198 213 216 204 196 201 195 188 169 135 124 93 53 58 57 61 62 51 59 67 60 55 52 56 63 69 66 65 66 62 60 58 54 52 48 45 41 36 34 33 32 38 40 36 40 42 40 40 36 28 19 10 8 5 0 359 355 353 353 352 353 352 349 348 348 347 347 347 346 344 343 342 341 339 336 335 335
218 214 210 207 203 206 215 211 203 213 215 214 215 209 202 193 181 178 174 150 90 56 57 68 72 75 104 93 65 69 67 72 74 72 72 69 67 62 58 54 49 41 35 31 28 26 27 28 26 24 23 22 26 25 23 24 19 15 8 360 1 360 353 352 352 353 354 353 353 351 350 350 349 351 352 350 349 347 346 347 344 342 340 337 337
217 215 207 207 213 217 218 213 208 213 210 213 226 214 206 200 191 198 183 157 132 85 54 88 144 145 152 156 86 83 83 83 80 72 68 63 56 48 43 37 32 25 21 19 17 18 18 18 17 16 14 11 10 6 5 4 0 358 354 353 359 1 356 351 351 354 356 355 355 354 354 354 354 357 358 353 352 352 351 350 347 347 346 342 339
216 213 209 210 217 217 214 208 208 214 213 219 234 221 211 204 198 202 181 162 166 174 187 200 157 161 172 179 104 86 90 82 71 63 53 46 36 25 21 16 12 8 7 7 6 7 8 8 8 7 6 4 1 359 358 356 354 354 358 4 8 5 358 353 354 357 356 356 356 356 355 355 354 354 353 351 352 352 350 348 346 346 347 344 341
213 213 214 217 222 216 209 208 207 213 218 223 231 224 214 204 196 198 185 178 196 202 205 187 162 173 186 181 131 99 89 75 61 48 38 29 15 5 2 359 356 355 355 356 358 359 360 1 1 1 0 358 358 359 0 0 0 0 3 9 9 1 354 354 357 357 356 356 355 355 354 353 353 351 350 349 348 348 346 345 344 344 344 342 340
218 217 216 219 226 220 214 213 211 215 220 222 226 222 212 201 190 184 196 221 233 230 218 182 179 190 184 151 120 106 86 67 50 30 23 9 354 351 348 346 346 346 348 349 351 352 355 358 359 0 360 0 4 5 6 6 6 5 1 1 360 357 355 355 357 357 356 357 356 356 355 355 355 353 352 351 349 348 347 346 345 343 341 340 339
222 216 217 226 227 223 220 215 214 222 222 221 220 211 201 198 191 182 201 239 247 234 213 185 188 192 168 139 119 109 95 68 27 6 358 340 335 334 334 338 340 341 344 346 348 353 359 2 5 5 6 9 11 10 8 8 7 6 2 360 358 356 356 356 357 358 359 359 360 360 360 360 359 358 357 356 354 352 350 348 347 345 343 341 339
222 217 218 225 223 223 222 211 214 223 216 215 209 195 189 194 198 200 205 220 236 227 201 185 183 175 161 144 130 125 116 21 318 318 312 309 313 318 327 331 333 340 344 348 356 5 10 12 14 12 11 12 10 8 6 6 5 2 0 359 358 357 357 358 360 2 4 5 6 6 6 5 5 4 2 0 359 357 354 352 350 348 346 344 342
229 229 222 220 223 223 216 207 216 216 201 197 193 190 197 198 200 216 215 209 215 211 191 181 171 160 157 148 142 163 215 258 272 276 281 288 301 312 322 328 334 342 346 357 8 14 17 16 15 12 11 9 6 4 3 1 359 356 357 358 358 359 0 3 6 8 10 11 11 10 10 9 8 6 5 3 1 359 357 355 353 350 349 347 344
234 233 228 224 223 218 211 212 217 204 193 193 196 203 209 205 205 214 221 220 207 191 183 179 172 162 158 162 175 199 226 242 256 265 272 282 297 310 318 326 335 341 349 4 13 14 12 11 10 8 6 4 1 360 359 358 356 356 358 358 359 3 7 10 12 12 13 13 12 11 9 8 7 5 3 2 360 358 356 354 353 351 350 347 345
227 230 232 221 211 210 210 216 211 193 191 203 211 211 204 205 213 211 210 218 207 184 176 177 179 174 162 177 192 199 219 235 249 259 267 280 292 302 312 322 331 339 353 6 6 3 2 3 4 3 360 357 356 356 357 357 357 357 357 359 4 11 14 15 14 13 13 12 10 8 6 5 4 2 1 359 358 357 355 354 353 352 350 347 345
222 225 229 214 207 210 207 208 203 192 198 212 215 207 202 208 218 219 205 198 199 187 176 176 179 177 171 186 196 194 211 232 241 252 263 272 281 290 299 311 322 335 348 355 352 350 353 357 359 358 356 355 354 355 356 356 355 356 359 6 13 17 17 16 15 13 12 10 7 6 5 4 2 1 360 358 356 355 355 354 353 352 348 345 344
227 218 219 210 205 204 201 206 206 205 216 220 212 201 206 213 214 215 204 189 189 185 178 179 182 186 182 183 193 198 212 228 233 242 253 259 265 274 283 297 312 326 335 335 336 339 347 352 353 353 354 354 354 354 354 354 356 0 7 13 17 18 17 15 14 11 10 7 6 4 4 3 2 360 358 356 354 353 355 354 352 349 344 342 343
225 210 209 205 203 205 208 217 218 218 222 217 208 204 210 213 204 198 198 193 187 182 180 182 185 192 190 183 191 206 221 228 226 230 242 247 251 260 267 279 294 303 307 304 313 326 337 344 348 350 352 352 351 351 351 354 359 7 13 14 16 16 14 12 11 8 7 5 4 3 3 1 360 358 355 354 351 350 353 354 350 346 342 340 341
224 205 209 209 208 212 217 222 222 219 214 206 205 209 206 199 190 183 184 187 187 182 180 181 185 190 195 203 211 222 231 225 216 215 226 236 241 248 254 262 269 269 272 278 291 311 327 339 344 345 346 346 346 348 350 355 3 10 12 12 12 10 8 8 6 5 3 2 2 2 1 360 357 355 353 351 349 348 350 351 348 345 341 339 339
228 202 211 214 207 209 214 217 217 212 206 200 201 202 194 184 180 178 178 179 182 182 177 177 184 190 195 210 223 234 241 233 227 219 216 224 231 236 240 245 248 246 251 262 276 297 318 331 335 335 337 337 340 346 349 355 4 10 10 7 6 5 4 3 1 0 360 359 0 360 359 357 355 353 350 349 348 345 347 349 346 342 339 337 337
226 205 212 211 201 202 205 209 209 202 196 192 193 190 185 180 177 177 179 179 177 176 176 177 183 188 193 205 218 231 242 243 242 235 226 222 223 227 230 232 235 237 240 248 262 287 307 317 320 322 326 330 334 340 346 351 359 2 1 359 0 1 359 358 357 356 356 356 357 357 356 354 352 350 349 348 346 344 345 345 341 339 340 338 336
218 209 214 204 198 200 203 209 206 197 189 184 186 187 184 183 182 179 178 176 174 175 178 179 181 183 192 207 219 227 232 234 236 235 234 228 224 227 227 224 226 228 231 241 256 277 292 298 304 309 315 321 326 330 336 340 344 346 349 352 354 354 353 353 352 351 351 352 352 352 352 351 349 347 346 346 345 343 343 342 339 340 342 338 335
214 211 213 200 197 200 203 209 203 192 185 182 185 187 185 186 185 181 177 175 176 177 177 179 183 186 197 215 229 232 230 230 230 229 230 230 230 230 225 222 224 225 229 239 253 266 277 284 292 299 305 312 317 320 322 322 326 330 336 342 344 345 346 346 346 345 345 346 347 347 347 345 344 343 343 344 344 341 341 339 337 340 341 337 334
217 213 208 198 198 201 204 207 199 190 185 184 188 188 187 186 184 180 177 177 180 179 176 178 184 193 208 227 240 243 242 240 236 232 230 232 233 227 219 219 222 225 231 239 249 259 266 276 286 290 297 305 309 310 309 308 312 319 325 330 333 335 337 338 338 338 338 340 341 341 341 340 339 340 341 342 342 340 338 337 336 339 339 336 334
219 210 202 199 200 200 202 203 196 189 188 188 188 189 189 187 183 181 178 178 180 180 176 174 180 198 217 231 236 238 240 241 237 233 232 234 235 226 217 217 222 226 231 239 249 259 264 272 279 284 292 299 302 302 300 300 302 309 315 318 322 326 328 330 330 331 332 334 336 337 337 336 337 338 339 339 338 337 336 336 337 338 337 334 334
216 205 200 202 201 200 202 199 193 190 191 189 188 190 191 187 184 183 181 180 179 176 173 171 180 202 221 232 234 234 236 237 235 234 233 231 231 227 220 222 230 235 240 246 251 257 264 270 272 279 288 293 296 296 296 296 299 303 308 310 314 318 320 323 324 326 329 331 333 334 333 333 334 336 337 336 335 335 334 334 335 336 335 335 335
214 204 202 203 203 202 201 197 193 192 193 190 190 191 190 187 185 184 182 180 178 175 175 177 187 204 219 228 232 234 237 240 240 240 241 239 237 236 230 228 233 240 249 255 257 260 266 270 272 278 285 289 291 293 293 295 298 300 303 306 309 312 315 319 322 324 326 327 329 331 331 331 332 334 335 334 333 333 332 333 334 334 334 336 335
215 206 205 206 205 203 200 196 194 194 194 192 192 192 189 187 185 184 183 181 180 180 179 184 194 207 217 223 231 237 240 243 245 245 246 246 247 246 243 239 237 242 249 255 260 264 265 267 272 277 280 283 287 290 292 294 298 300 302 303 305 308 312 316 320 322 323 324 326 328 328 328 330 333 333 332 332 331 331 332 333 333 334 336 335
216 209 207 208 206 203 199 196 196 196 195 193 193 192 190 188 187 186 186 184 183 184 185 189 197 209 219 224 231 238 243 246 248 250 250 250 251 250 250 248 245 246 252 256 260 263 264 267 273 276 276 279 284 288 292 295 298 300 301 302 304 307 312 315 318 319 320 322 323 325 325 326 329 332 332 331 329 328 329 331 332 333 334 335 333
216 212 211 210 206 202 198 197 198 198 196 195 194 193 191 189 190 189 188 187 187 189 190 195 202 212 222 227 233 239 244 246 247 250 252 253 253 251 251 251 250 251 255 260 263 263 266 271 274 275 274 279 285 289 292 295 298 301 302 303 306 309 312 315 316 316 318 319 320 321 322 325 329 331 330 329 327 327 330 332 332 332 333 333 331
217 215 214 211 204 200 199 199 200 198 197 196 194 194 193 192 192 191 191 191 192 195 195 199 209 220 227 231 236 239 242 245 247 250 252 253 253 253 253 254 255 256 257 262 267 268 271 273 275 275 277 282 286 289 293 295 298 301 303 305 307 310 312 313 314 315 316 317 318 319 320 324 329 330 329 326 324 327 331 332 332 332 332 331 330
220 218 215 210 202 199 200 201 200 199 198 197 196 195 195 195 194 193 194 194 196 200 201 206 216 225 234 238 239 240 242 245 247 250 252 254 255 256 257 258 259 260 261 264 269 272 276 278 278 279 282 285 287 289 292 295 297 299 302 304 306 309 310 312 314 315 316 316 316 317 319 325 329 329 327 323 323 328 331 331 331 331 331 330 329
222 220 217 208 202 201 202 202 202 200 199 198 198 198 197 197 197 197 197 197 198 202 206 214 223 229 237 242 244 245 245 247 249 251 253 255 258 259 261 262 262 263 265 267 271 276 279 280 282 283 285 286 287 290 292 293 296 298 301 303 305 307 309 311 314 315 316 315 314 315 319 325 328 327 325 322 323 329 330 331 331 330 330 329 327
226 222 216 207 203 204 204 203 203 202 201 200 200 200 200 199 199 199 200 199 201 205 209 218 229 235 240 245 250 251 250 250 251 253 255 257 260 262 264 264 265 267 269 271 275 279 279 280 282 284 285 286 287 290 291 292 295 296 299 302 304 306 308 310 313 316 317 315 313 314 319 324 327 325 322 320 323 328 330 331 331 330 329 327 326
230 223 215 209 206 207 207 206 204 203 204 203 203 203 202 201 201 201 202 202 205 209 213 221 233 240 245 250 255 257 256 255 254 255 257 258 260 263 265 267 268 270 272 274 276 280 282 282 281 282 284 286 288 289 290 292 295 296 299 302 304 306 307 309 312 315 316 314 312 314 318 323 325 323 320 319 323 328 329 330 330 329 328 326 325
232 224 216 211 209 210 210 208 206 205 205 205 206 206 204 204 205 205 206 206 208 212 216 225 236 245 252 257 260 260 260 258 257 257 257 259 261 264 267 268 270 272 274 276 278 280 284 285 284 283 284 286 287 289 291 293 295 297 299 302 303 305 307 309 311 314 315 314 312 313 317 321 322 321 318 319 323 327 328 329 329 328 327 326 325
233 224 217 214 212 213 212 210 209 208 207 207 208 207 207 207 208 210 210 210 211 215 218 226 238 248 257 263 265 265 264 261 260 259 259 262 264 266 268 269 271 274 276 278 279 281 284 286 287 288 288 288 289 291 293 294 295 297 299 301 302 304 306 308 309 312 314 313 311 312 315 319 319 318 317 318 323 326 326 328 328 327 327 326 325
233 225 220 217 215 215 214 213 211 210 209 210 210 210 209 210 212 213 212 212 215 220 224 230 240 250 260 268 271 270 268 265 263 262 262 264 265 266 268 270 273 276 277 278 280 281 283 286 289 290 290 291 292 294 295 296 296 298 300 301 302 304 305 306 308 310 313 313 311 310 313 315 317 316 315 317 322 324 325 327 327 327 328 327 324
232 226 223 219 217 217 216 215 214 212 212 212 213 213 213 214 216 215 215 216 218 223 230 236 243 252 262 269 272 274 273 271 268 266 265 264 265 266 269 272 274 276 277 278 280 282 284 286 289 290 291 293 294 296 297 297 298 300 302 302 302 303 304 306 307 309 312 312 310 309 310 313 315 315 314 316 321 322 322 324 326 328 328 327 325
234 228 225 222 219 218 217 217 216 215 215 215 215 216 216 218 219 220 222 223 224 229 237 241 245 256 267 271 271 272 275 275 272 269 267 266 266 267 268 271 273 275 277 279 281 282 284 286 288 290 292 293 295 297 299 298 299 301 303 303 302 303 304 306 307 308 310 311 309 308 309 311 315 315 313 315 319 320 320 322 325 328 328 327 325
235 230 226 223 220 219 219 218 218 218 218 218 218 217 218 221 222 224 227 228 231 238 243 243 248 261 273 277 274 270 271 275 274 272 270 269 268 268 269 271 273 275 277 278 280 282 284 287 288 290 292 293 295 297 298 298 300 301 301 301 301 301 303 304 305 306 308 309 309 308 308 310 314 315 313 314 317 318 319 321 324 327 329 328 327
236 231 227 224 222 220 220 220 220 220 220 220 219 220 222 224 226 229 229 231 239 247 246 243 249 264 279 285 281 272 266 268 270 270 271 270 270 270 271 273 274 276 277 278 280 282 284 287 288 290 292 293 295 297 298 299 300 300 300 300 299 299 301 302 303 304 305 307 308 307 307 309 313 314 312 313 316 317 318 321 323 326 330 330 329
236 231 226 224 222 221 222 222 221 221 221 221 221 222 225 227 230 231 230 236 248 251 245 241 248 265 283 293 291 280 270 267 267 268 269 269 270 272 274 275 276 277 277 278 279 282 284 287 289 291 293 293 295 297 298 300 300 299 300 299 297 298 300 300 301 302 304 306 307 306 306 307 310 313 311 311 315 315 315 319 322 326 330 330 328
237 232 226 223 223 223 223 224 224 224 224 223 223 224 226 229 231 230 234 246 254 250 242 241 249 267 285 296 297 289 280 275 271 268 268 269 271 272 274 276 277 278 278 279 280 282 284 286 289 291 292 293 296 298 298 300 300 300 299 298 297 299 300 300 300 301 303 304 305 304 304 305 308 311 310 310 313 313 313 316 320 323 328 328 326
237 232 226 224 224 224 224 225 226 227 226 225 225 226 229 231 231 233 242 254 256 246 239 241 251 266 282 295 300 296 290 284 275 269 267 268 271 272 274 276 277 279 280 280 281 283 284 286 288 289 291 294 296 297 298 300 300 299 298 298 298 299 299 298 299 300 302 303 304 303 301 302 306 309 308 309 312 311 311 313 316 320 325 327 327
237 232 227 225 224 225 226 227 227 228 228 227 227 229 231 233 234 238 249 258 255 244 240 244 255 265 277 293 301 299 296 290 279 272 269 268 270 272 274 276 278 280 281 281 282 283 284 284 286 289 292 294 295 296 299 299 297 296 296 297 297 297 297 296 298 300 302 302 303 302 299 300 304 307 307 307 309 308 309 311 313 317 322 326 327
237 234 230 227 225 226 227 228 230 230 229 228 228 229 232 234 236 242 253 258 251 243 244 250 258 264 272 288 299 299 296 292 284 276 271 269 270 272 273 275 278 281 282 283 284 286 286 286 288 290 293 294 294 296 298 296 294 294 294 294 294 293 293 294 297 300 300 301 302 301 299 299 302 305 304 305 306 305 306 309 311 314 318 323 328
239 237 234 230 229 229 229 230 231 232 231 230 228 229 234 235 236 245 256 256 247 245 250 254 259 263 269 282 295 298 294 292 288 281 274 270 270 271 273 275 277 280 281 283 284 286 287 289 290 292 294 294 295 296 295 294 293 293 293 292 291 290 290 294 297 299 300 300 300 300 298 297 300 302 302 302 303 303 305 307 308 310 314 320 328
240 238 236 233 231 231 231 232 233 233 233 230 229 233 238 235 237 249 259 257 249 250 254 256 259 264 269 278 291 296 292 290 290 285 278 272 269 271 273 276 277 279 280 282 283 285 287 289 290 291 293 294 294 294 293 293 292 292 291 289 288 287 289 293 296 297 297 298 297 298 297 296 298 300 299 299 301 301 303 306 306 308 311 317 327
244 242 240 237 234 234 233 233 233 233 233 231 232 238 238 235 242 257 263 259 254 254 258 260 262 266 271 277 287 293 291 289 290 287 281 273 270 270 273 276 278 280 280 281 283 285 286 286 287 288 289 290 290 290 290 290 290 289 288 286 286 286 287 290 292 293 294 294 295 297 297 295 298 299 297 298 299 300 302 304 305 307 310 315 325
248 247 246 242 239 238 237 236 235 234 233 233 236 239 237 238 251 262 262 258 257 259 262 265 266 269 273 277 283 289 291 290 289 286 281 275 271 271 273 276 278 279 280 283 285 286 285 285 285 285 286 286 286 286 286 286 285 281 280 282 285 284 283 285 288 289 290 291 293 297 297 296 298 299 298 299 299 298 301 303 304 307 310 315 322
250 250 249 246 242 241 240 239 238 237 236 238 241 240 237 243 256 262 260 259 260 263 266 269 270 272 274 277 281 286 290 290 288 284 281 277 274 273 275 277 278 279 282 285 286 286 285 284 283 283 282 282 282 282 282 282 280 275 272 275 278 278 279 281 283 284 285 287 291 297 299 297 297 297 298 301 301 300 301 304 306 308 310 314 319